This demonstration page uses our WeatherBlox Daily Observations layout. Learn more.

Left ArrowRight Arrow

Hourly Observations for August 30, 2018

Temp ( °F °C ) Dew Point ( °F °C ) Humidity (%) Winds ( mph kmh ) Pressure ( in mb ) Visibility ( mi km ) Precip ( " mm )
12:59 am 00:59 Partly Cloudy 80 26.7 73 22.8 79 79 SSW 8 13 30.09 1019 10 16 0.00 0.00
1:59 am 01:59 Partly Cloudy 80 26.7 73 22.8 79 79 SW 9 15 30.09 1019 10 16 0.00 0.00
2:59 am 02:59 Partly Cloudy 79 26.1 73 22.8 82 82 SW 9 15 30.08 1019 10 16 0.00 0.00
3:59 am 03:59 Partly Cloudy 79 26.1 73 22.8 82 82 SW 9 15 30.07 1018 10 16 0.00 0.00
4:59 am 04:59 Mostly Clear 78 25.6 73 22.8 85 85 SW 8 13 30.07 1018 10 16 0.00 0.00
5:59 am 05:59 Partly Cloudy 78 25.6 73 22.8 85 85 SSW 7 11 30.06 1018 10 16 0.00 0.00
6:59 am 06:59 Partly Cloudy 77 25 73 22.8 88 88 SSW 7 11 30.07 1018 10 16 0.00 0.00
7:59 am 07:59 Partly Cloudy 79 26.1 73 22.8 82 82 SW 9 15 30.09 1019 10 16 0.00 0.00
8:59 am 08:59 Partly Cloudy 81 27.2 73 22.8 77 77 SW 8 13 30.09 1019 10 16 0.00 0.00
9:59 am 09:59 Partly Cloudy 84 28.9 74 23.3 72 72 W 8 13 30.09 1019 9 14 0.00 0.00
10:59 am 10:59 Mostly Sunny 87 30.6 73 22.8 63 63 W 7 11 30.09 1019 9 14 0.00 0.00
11:59 am 11:59 Mostly Sunny 89 31.7 73 22.8 59 59 NW 6 9 30.09 1019 9 14 0.00 0.00
12:59 pm 12:59 Mostly Sunny 92 33.3 73 22.8 54 54 VRB 6 9 30.07 1018 10 16 0.00 0.00
1:59 pm 13:59 Mostly Sunny 94 34.4 73 22.8 51 51 WSW 5 7 30.06 1018 9 14 0.00 0.00
2:59 pm 14:59 Mostly Sunny 93 33.9 75 23.9 56 56 NW 8 13 30.05 1018 9 14 0.00 0.00
3:28 pm 15:28 Partly Cloudy with Thunderstorms 94 34.4 75 23.9 54 54 NNW 12 19 30.03 1017 9 14 0.00 0.00
3:59 pm 15:59 Mostly Cloudy with Thunderstorms 91 32.8 74 23.3 57 57 E 16 26 30.03 1017 9 14 0.00 0.00
4:17 pm 16:17 Mostly Cloudy with Thunderstorms 88 31.1 71 21.7 57 57 ESE 10 17 30.03 1017 9 14 0.00 0.00
4:59 pm 16:59 Mostly Cloudy with Thunderstorms 87 30.6 71 21.7 59 59 VRB 3 6 30.03 1017 9 14 0.00 0.00
5:23 pm 17:23 Mostly Cloudy 88 31.1 71 21.7 57 57 NE 12 19 30.00 1016 10 16 0.00 0.00
5:46 pm 17:46 Partly Cloudy with Thunderstorms 87 30.6 71 21.7 59 59 NE 9 15 30.03 1017 10 16 0.00 0.00
5:59 pm 17:59 Partly Cloudy with Thunderstorms 86 30 71 21.7 61 61 NNE 9 15 30.03 1017 10 16 0.00 0.00
6:55 pm 18:55 Mostly Cloudy 84 29 73 23 70 70 NE 6 9 30.03 1017 8 13 0.00 0.00
6:59 pm 18:59 Mostly Cloudy 85 29.4 74 23.3 70 70 NE 6 9 30.02 1017 8 13 0.00 0.00
7:59 pm 19:59 Mostly Cloudy 84 28.9 74 23.3 72 72 ENE 3 6 30.05 1018 10 16 0.00 0.00
8:52 pm 20:52 Mostly Cloudy with Thunderstorms 84 28.9 74 23.3 72 72 NNE 5 7 30.06 1018 10 16 0.00 0.00
8:59 pm 20:59 Mostly Cloudy with Thunderstorms 83 28.3 75 23.9 77 77 NNE 5 7 30.07 1018 10 16 0.00 0.00
9:59 pm 21:59 Mostly Cloudy with Thunderstorms 81 27.2 70 21.1 69 69 N 7 11 30.07 1018 10 16 0.00 0.00
10:59 pm 22:59 Cloudy with Thunderstorms 78 25.6 71 21.7 79 79 N 12 19 30.12 1020 9 14 0.00 0.03
11:59 pm 23:59 Cloudy with Thunderstorms 77 25 70 21.1 79 79 WNW 21 33 30.17 1022 10 16 0.00 0.03

Powered by AerisWeather